Location: Buffign�court
(47.8126°N, 6.0176°E)
Time: 19:16:57
(UTC+00:00)

GEOS 3 Rocket - Pass Details

Date: 16 June 2021
Orbit: 780 x 839 km, 115.0° (Epoch: 02 August)

Event Time Altitude Azimuth Distance (km) Brightness Sun altitude
Exits shadow 22:36:02 30° 164° (SSE) 1,469 4.4 -17.5°
Maximum altitude 22:38:39 61° 234° (SW) 950 3.8 -17.6°
Drops below altitude 10° 22:43:56 10° 314° (NW) 2,453 7.0 -17.8°
Sets 22:46:17 0° 318° (NW) 3,385 7.9 -17.9°
